User: anonymous   Login
Location: Caltech
(34.1382°N, 118.1253°W)
Time: 16:58:38
(UTC-08:00)
Language:

Cosmos 1484 Rocket - Orbit

View from above orbital plane
View from above orbital plane
View from above satellite
View from above satellite

Ground track
Ground track

The orbit data is extracted from the following two-line orbital elements,

1 14208U 83075B   15060.65364804  .00003234  00000-0  20784-3 0  9992
2 14208 097.3964 093.1903 0042517 138.3167 222.1315 15.08361877720997
Epoch (UTC): 01 March 2015 15:41:15
Eccentricity: 0.0042517
inclination: 97.3964°
perigee height: 512 km
apogee height: 570 km
right ascension of ascending node: 93.1903°
argument of perigee: 138.3167°
revolutions per day: 15.08361877
mean anomaly at epoch: 222.1315°
orbit number at epoch: 72099

The dashed part of the orbit path shows where the satellite is in the earth's shadow,  

DLR